Hourly Data Report for September 19, 2017

All times are specified in Local Standard Time (LST). Add 1 hour to adjust for Daylight Saving Time where and when it is observed.

PANGNIRTUNG
NUNAVUT

66°08'36.300" N
65°42'40.500" W
22.60 m
2403049
71826
WXP

Download Data

Hourly Data (September 2017)
Hourly Data Report for September 19, 2017
Temp Definition
°C
Dew Point Temp Definition
°C
Rel Hum Definition
%
Wind Dir Definition
10's deg

Wind Spd Definition
km/h
Visibility Definition
km
Stn Press Definition
kPa
Hmdx Definition


Wind Chill Definition


Weather Definition


TIME
00:00 2.1 0.4 88 26 3   101.32     LegendNANA
01:00 2.1 0.2 88 15 2   101.31     LegendNANA
02:00 1.2 -0.4 89 24 2   101.31     LegendNANA
03:00 1.2 -0.5 88 23 3   101.29     LegendNANA
04:00 1.9 -0.2 86 0 1   101.25     LegendNANA
05:00 0.5 -1.3 88 11 1   101.22     LegendNANA
06:00 1.0 -0.8 88 8 1   101.20     LegendNANA
07:00 1.9 0.0 87 7 6   101.17     LegendNANA
08:00 4.0 0.5 77 9 4   101.12     LegendNANA
09:00 3.8 0.4 78 7 4   101.07     LegendNANA
10:00 4.8 1.5 79 3 4   101.05     LegendNANA
11:00 4.1 0.9 80 25 6   101.02     LegendNANA
12:00 4.2 1.6 83 25 7   100.98     LegendNANA
13:00 4.7 1.9 82 25 12   100.99     LegendNANA
14:00 3.6 1.7 87 25 10   100.99     LegendNANA
15:00 4.8 1.2 77 26 4   100.97     LegendNANA
16:00 4.2 1.5 82 24 3   100.99     LegendNANA
17:00 3.3 0.6 83   0   100.97     LegendNANA
18:00 4.8 0.4 73 11 7   100.96     LegendNANA
19:00 3.1 0.4 83 14 3   101.00     LegendNANA
20:00 5.6 0.4 69 8 5   101.00     LegendNANA
21:00 6.1 0.4 67 8 6   101.00     LegendNANA
22:00 4.8 0.2 73 34 3   101.05     LegendNANA
23:00 5.1 0.6 72 9 8   101.05     LegendNANA

Notes on Data Quality.

Legend

  • E = Estimated
  • M = Missing
  • NA = Not Available
  • ‡ = Partner data that is not subject to review by the National Climate Archives
Date modified: